STARLINK-1657, 46354

Orbit data source: Space-Track

STARLINK-1657, 46354 is a payload satellite owned by SpaceX/Seattle (US) in LEO that was launched on Thu, 03 Sep 2020 UTC via an FALCON 9 launch vehicle from the Air Force Eastern Test Range (AFETR). Payload-class satellites include a variety of spacecraft equipped with specific instruments for various scientific and technological missions. These include communications satellites like Starlink; space stations such as the ISS; scientific satellites like the Hubble; Earth observation satellites from companies like Planet Labs, Umbra, and HawkEye 360; GPS; miniature CubeSats for education and research; and military/defense satellites.

Loading next visibility...
Identifier
46354, 2020-062AF
Orbit
LEO
Country
Flag of USUS
Related business
Manufacturer
SpaceX/Seattle
Mission
Partially operational Commercial Communications
Bus & Motor
STARLINK, Unknown motor
Mass
260 kg wet, ~248 kg dry
Launch date (UTC)
2020-09-03 (6 years ago)
Launch vehicle
FALCON 9
Launch site
Air Force Eastern Test Range (AFETR)
Object type
Payload
Rocket body
Debris
Shape & HBR
Box + 1 Pan, 10.1 m
Radar Cross Section
13.562 m², Large (>1 m²)

Expand to show TLE details & history
Last TLE update: 5 hours ago

TLE from 5 hours ago
0 STARLINK-1657
1 46354U 20062AF  26074.66668981  .00299600  00000-0  11091-2 0  9991
2 46354  53.0437 298.9119 0005917 267.1860  84.9100 15.86790584  6031
Epoch: 2026-03-15T16:00Z
TLE epoch observation values (Epoch: 2026-03-15T16:00:01.999Z)
Latitude
-6.37539°
Longitude
-119.16154°
Altitude
312.894 km
Speed
7.721 km/s
True Right ascension
19h 36m 28s
True Declination
-6° 20' 06"
Sunlit
Object was in daylight at epoch
Visualization orbit readout
Latitude
Unknown
Longitude
Unknown
Altitude
Unknown
Speed
Unknown
Apparent Right ascension
Unknown
Apparent Declination
Unknown
Sunlit
N/A
Visualization observer readout
Local Sidereal Time
01:15:43
Azimuth
Unknown
Elevation
Unknown
Doppler factor
Unknown
Orbital elements
Apogee altitude
315.528 km
Perigee altitude
307.611 km
Semi-major axis
6,689.706 km
Eccentricity
0.00059
Inclination
53.0437°
RAAN
298.9119°
Arg. of periapsis
267.186°
True anomaly
84.97754°
Mean anomaly
84.91°
Eccentric anomaly
84.94377°
Mean motion
3.96673 °/min
Orbital period
90.75 mins
BSTAR
0.0011091
Loading maneuver chart data...
Computing Atmospheric mass density...

Documentation

Showing up to 5 results
|